Location: Invercargill
(46.4000°S, 168.3500°E)
Time: 02:58:18
(UTC+13:00)

Cosmos 2322 - Pass Details

Date: 30 September 2021
Orbit: 840 x 855 km, 71.0° (Epoch: 24 October)

Event Time Altitude Azimuth Distance (km) Brightness Sun altitude
Rises 22:57:36 0° 204° (SSW) 3,436 7.8 -29.5°
Reaches altitude 10° 23:00:11 10° 197° (SSW) 2,496 6.9 -29.8°
Enters shadow 23:04:40 42° 153° (SSE) 1,207 4.5 -30.4°
